Powrót do katalogu

COSMOS 1924

AktywnyNawigacjaLEO
NORAD 18937·PAYLOAD·🇷🇺 Russia

Wystrzelony Mar 11, 1988 z Plesetsk Cosmodrome

Loading…

Następne Przeloty (najbliższe 24 godziny)

TLE

ŚwieżeSource: Space-Track

Epoka: Sep 14, 2026, 13:20 UTC

1 18937U 88016A   26257.55559187 -.00000010  00000-0  39196-4 0  9992
2 18937  74.0092  11.1576 0035061 265.2508 107.0414 12.44623359749798

Śledź COSMOS 1924 w czasie rzeczywistym z AllMySat

Download on the App Store